Regional Weather Roundup
Issued by NWS

Home | Current Version | Previous Version | Text Only | Print | Product List | Glossary Off
Versions: 1 2 3 4 5 6 7 8 9 10 11 12 13 14 15 16 17 18 19 20 21 22 23 24 25 26 27 28 29 30 31 32 33 34 35 36 37 38 39 40 41 42 43 44 45 46 47 48 49 50

000
ASUS43 KOAX 260110
RWRNE

WEATHER ROUNDUP FOR NEBRASKA
NATIONAL WEATHER SERVICE OMAHA NE
800 PM CDT WED APR 25 2018

NOTES: SATELLITE DATA IS BEING USED TO AUGMENT CLOUD COVER ABOVE
       12000 FEET.
       "FAIR" INDICATES FEW OR NO CLOUDS BELOW 12,000 FEET WITH NO
       SIGNIFICANT WEATHER AND/OR OBSTRUCTIONS TO VISIBILITY.


NEZ001>004-019>022-054>056-260200-
NEBRASKA PANHANDLE

CITY           SKY/WX    TMP DP  RH WIND       PRES   REMARKS
SCOTTSBLUFF    PTCLDY    68  31  25 SE10      29.94F
ALLIANCE       MOCLDY    60  28  29 MISG      29.95F
CHADRON        CLOUDY    63  31  30 S8        29.89F
GORDON         FAIR      59  32  36 S5        29.93F
KIMBALL        PTCLDY    58  25  28 S9        30.01F
SIDNEY         CLEAR     61  27  27 S9        30.01F
$$

NEZ057>060-069>072-079>082-260200-
SOUTHWEST NEBRASKA

CITY           SKY/WX    TMP DP  RH WIND       PRES   REMARKS
NORTH PLATTE   MOCLDY    59  31  34 S5        30.02F
IMPERIAL       PTCLDY    59  32  36 SE5       30.03F
LEXINGTON      PTCLDY    57  30  35 SE5       30.05S
MCCOOK         PTCLDY    59  33  37 SE3       30.04F
OGALLALA       CLEAR     61  33  34 S7        30.01F
$$

NEZ005>010-023>029-035>040-094-260200-
NORTH CENTRAL NEBRASKA

CITY           SKY/WX    TMP DP  RH WIND       PRES   REMARKS
VALENTINE      MOCLDY    63  24  22 S10       29.94F
AINSWORTH      CLOUDY    57  31  36 S9        29.97F
BROKEN BOW     MOCLDY    56  32  40 SE7       30.02F
O`NEILL        MOCLDY    56  34  43 S6        30.01F
ORD            PTCLDY    54  32  43 S5        30.02F
THEDFORD       MOCLDY    62  25  24 S9        30.00F
$$

NEZ041-046>049-061>064-073>077-083>087-260200-
SOUTH CENTRAL NEBRASKA

CITY           SKY/WX    TMP DP  RH WIND       PRES   REMARKS
GRAND ISLAND   CLEAR     56  29  35 CALM      30.05F
AURORA         CLEAR     54  31  41 CALM      30.06F
HASTINGS       CLEAR     55  32  41 CALM      30.06F
HEBRON         CLEAR     52  37  55 CALM      30.08F
HOLDREGE       CLEAR     55  35  46 S3        30.05F
KEARNEY        CLEAR     54  33  45 CALM      30.06F
YORK             N/A     55  30  38 CALM      30.06F
$$

NEZ011>018-030>034-042>045-260200-
NORTHEAST NEBRASKA

CITY           SKY/WX    TMP DP  RH WIND       PRES   REMARKS
NORFOLK        CLEAR     55  29  36 S5        30.01F
ALBION         CLEAR     53  33  46 CALM      30.04S
BLAIR          CLEAR     58  32  36 W5        30.04F
COLUMBUS       CLEAR     56  33  42 CALM      30.05F
FREMONT        CLEAR     59  30  33 CALM      30.05S
TEKAMAH        CLEAR     57  31  37 W5        30.03F
WAYNE          CLEAR     57  31  37 S3        30.03F
$$

NEZ050>053-065>068-078-088>093-260200-
SOUTHEAST NEBRASKA

CITY           SKY/WX    TMP DP  RH WIND       PRES   REMARKS
LINCOLN        CLEAR     55  30  38 CALM      30.07F
OMAHA EPPLEY   PTCLDY    59  35  40 NW5       30.02F
BEATRICE       CLEAR     52  39  61 W5        30.08F
FALLS CITY     PTCLDY    50  38  63 NW5       30.06F
NEBRASKA CITY  CLEAR     50  44  78 SW6       30.06S
PLATTSMOUTH    CLEAR     56  36  47 W6        30.04F
$$

NEZ044-045-051>053-067-260200-
OMAHA AREA

CITY           SKY/WX    TMP DP  RH WIND       PRES   REMARKS
OMAHA EPPLEY   PTCLDY    59  35  40 NW5       30.02F
BLAIR          CLEAR     58  32  36 W5        30.04F
FREMONT        CLEAR     59  30  33 CALM      30.05S
MILLARD        CLEAR     59  35  40 W6        30.03F
OFFUTT AFB     CLEAR     57  34  41 W7        30.02F
PLATTSMOUTH    CLEAR     56  36  47 W6        30.04F
WAHOO          FAIR      56  34  43 W6        30.05F
$$



USA.gov is the U.S. government's official web portal to all federal, state and local government web resources and services.